Weather in Patrusheva

Russia / Tyumen Oblast     57°05′28″N   65°32′35″E
temp.,
°C
wind,
m/s
gust,
m/s
humid.,
%
clouds,
%
prec.,
mm/h
press.,
hPa
HPBL,
m
13 june, sun
sun1323:00+14wsw226487 0.0 102432
02:00+14w226853 0.0 102316
05:00+14w226927 0.0 102422
08:00+21wsw124628 0.0 1024387
11:00+25sw2332100 0.0 10241901
14:00+24ssw4436100 0.0 10241029
17:00+25sw3435100 0.0 10231578
20:00+21sw2257100 0.0 102333
14 june, mon
mon1423:00+16ssw22675 0.0 102333
02:00+14sw23705 0.0 102351
05:00+14ssw26713 0.0 1024105
08:00+22ssw36455 0.0 1023399
11:00+27sw473150 0.0 10221447
14:00+29sw572846 0.0 10212979
17:00+26wsw583792 0.0 10201010
20:00+24sw410475 0.0 1019535
15 june, tue
tue1523:00+20sw4136243 0.0 1018392
02:00+19sw4136191 0.0 1018318
05:00+19sw41356100 0.0 1018344
08:00+22sw4953100 0.0 1017339
11:00+27wsw4741100 0.0 10161005
14:00+30wsw6930100 0.0 10152450
17:00+27nw61046100 0.1 10152092
20:00+19wsw118515 1.0 101423
16 june, wed
wed1623:00+17wnw008899 1.2 101411
02:00+16wnw2294100 0.3 101442
05:00+16wnw249486 0.3 1014114
08:00+20wnw2475100 0.0 1015321
11:00+27w24426 0.0 10141399
14:00+30nw473529 0.0 10132410
17:00+23wnw8126299 0.4 10141039
20:00+20ssw238189 0.9 101375
17 june, thu
thu1723:00+17s3691100 0.9 1013110
02:00+17ssw278998 0.0 1011202
05:00+18wsw31086100 0.1 1011353
08:00+22wsw377082 0.4 1010479
11:00+28w36435 0.4 10081486
14:00+31nw45316 0.0 10072757
17:00+29ssw234096 0.0 10051322
20:00+26sw385295 0.0 1004236